Regional Weather Roundup
Issued by NWS

Home | Current Version | Previous Version | Text Only | Print | Product List | Glossary On
Versions: 1 2 3 4 5 6 7 8 9 10 11 12 13 14 15 16 17 18 19 20 21 22 23 24 25 26 27 28 29 30 31 32 33 34 35 36 37 38 39 40 41 42 43 44 45 46 47 48 49 50
000
ASUS43 KFSD 240610
RWRSD

WEATHER ROUNDUP FOR SOUTH DAKOTA
NATIONAL WEATHER SERVICE SIOUX FALLS SD
100 AM CDT THU JUL 24 2014

NOTE: "FAIR" INDICATES FEW OR NO CLOUDS BELOW 12,000 FEET WITH NO
SIGNIFICANT WEATHER AND/OR OBSTRUCTIONS TO VISIBILITY.


SDZ001>005-009-010-012>017-240700-
NORTHWEST AND NORTH CENTRAL SOUTH DAKOTA

CITY           SKY/WX    TMP DP  RH WIND       PRES   REMARKS
BUFFALO          N/A     72  58  61 SE22G29   29.91F
FAITH            N/A     70  54  56 SE21G28   30.03S
MOBRIDGE       CLEAR     68  56  65 SE14      30.07F
$$

SDZ012>016-024>037-041>051-057-063-072>074-240700-
SOUTHWEST AND SOUTH CENTRAL SOUTH DAKOTA

CITY           SKY/WX    TMP DP  RH WIND       PRES   REMARKS
RAPID CTY ARPT PTCLDY    69  62  78 SE8       30.03S
PIERRE         CLEAR     70  58  65 SE13      30.06F
CUSTER         CLOUDY    69  61  75 SW7       30.20R
ELLSWORTH AFB  CLOUDY    71  63  75 S6        30.03R
PHILIP         MOCLDY    72  58  61 E10       30.02F
PINE RIDGE     PTCLDY    74  63  68 S20G31    30.02F
WINNER         FAIR      71  58  63 SE15      30.10S
$$

SDZ004>011-016>023-039-040-240700-
NORTHEAST SOUTH DAKOTA

CITY           SKY/WX    TMP DP  RH WIND       PRES   REMARKS
ABERDEEN       CLEAR     60  57  89 SE5       30.15S
WATERTOWN      CLEAR     64  55  72 SE6       30.18S
SISSETON         N/A     60  58  92 CALM      30.16F
$$

SDZ017-020-022-023-036>040-048>070-240700-
SOUTHEAST SOUTH DAKOTA

CITY           SKY/WX    TMP DP  RH WIND       PRES   REMARKS
SIOUX FALLS    CLEAR     64  56  75 E7        30.17F
HURON          CLEAR     65  55  70 SE10      30.13F
CHAMBERLAIN    PTCLDY    66  59  76 SE10      30.12S
MITCHELL       CLEAR     64  59  83 SE5       30.16R
YANKTON        CLEAR     64  61  88 CALM      30.16S
$$

ABBREVIATIONS USED IN REMARKS
   TC - TEMPERATURE IN CELSIUS
  WCI - WIND CHILL INDEX
   HX - HEAT INDEX
  VSB - VISIBILITY



USA.gov is the U.S. government's official web portal to all federal, state and local government web resources and services.